Showing default

SYNCOM 3, 858

Orbit data source: Space-Track

SYNCOM 3, 858 is a payload satellite owned by GSFC (US) in GEO that was launched on Wed, 19 Aug 1964 UTC via a THOR DELTA D launch vehicle from the Air Force Eastern Test Range (AFETR). Payload-class satellites include a variety of spacecraft equipped with specific instruments for various scientific and technological missions. These include communications satellites like Starlink; space stations such as the ISS; scientific satellites like the Hubble; Earth observation satellites from companies like Planet Labs, Umbra, and HawkEye 360; GPS; miniature CubeSats for education and research; and military/defense satellites.

Not visible in the next 10 days
Identifier
858, 1964-047A
Orbit
GEO
Country
Flag of USUS
Related business
Manufacturer
Hughes
Mission
Non-operational spacecraft
Bus & Motor
HS-301, SR-12-1
Mass
66 kg wet, 33 kg dry
Launch date (UTC)
1964-08-19 (62 years ago)
Launch vehicle
THOR DELTA D
Launch site
Air Force Eastern Test Range (AFETR)
Object type
Payload
Rocket body
Debris
Shape & HBR
Unknown
Radar Cross Section
Large (>1 m²)

Expand to show TLE details & history
Last TLE update: 1 day ago

TLE from 1 day ago
0 SYNCOM 3
1 00858U 64047A   26070.65225714  .00000147  00000-0  00000-0 0  9991
2 00858   6.7291  65.4938 0003910 189.6964 186.8853  1.00374364 52496
Epoch: 2026-03-11T15:39Z
TLE epoch observation values (Epoch: 2026-03-11T15:39:15.016Z)
Latitude
1.90139°
Longitude
37.84718°
Altitude
35,773.431 km
Speed
3.075 km/s
True Right ascension
05h 27m 53s
True Declination
1° 53' 58"
Sunlit
Object was in daylight at epoch
Visualization orbit readout
Latitude
Unknown
Longitude
Unknown
Altitude
Unknown
Speed
Unknown
Apparent Right ascension
Unknown
Apparent Declination
Unknown
Sunlit
N/A
Visualization observer readout
Local Sidereal Time
20:08:12
Azimuth
Unknown
Elevation
Unknown
Doppler factor
Unknown
Orbital elements
Apogee altitude
35,775.388 km
Perigee altitude
35,742.437 km
Semi-major axis
42,137.049 km
Eccentricity
0.00039
Inclination
6.7291°
RAAN
65.4938°
Arg. of periapsis
189.6964°
True anomaly
186.87993°
Mean anomaly
186.8853°
Eccentric anomaly
186.88262°
Mean motion
0.25093 °/min
Orbital period
1,434.68 mins
BSTAR
0
Loading maneuver chart data...
Computing Atmospheric mass density...
Loading historical data...
Loading historical data...
Loading historical data...
Loading historical data...
Loading historical data...
Loading historical data...
Loading historical data...
Other satellites on launch #47 in the year 1964 (1964-08-19 UTC)

Documentation

Showing up to 5 results
|